CAPE
0 1 2 7 14 18 13 9 3 0 7 38 0 0 0 0 0 0 0 0 0 4 7 6 89 158 751 279 307 420 366 40 6 0 2 2 0 0 0 0 0 0 0 0
2 0 0 0 0 0 2 0 0 0 0 0 0 0 0 0 0 0 0 0 0 0 0 0 0 33 313 0 0 0 0 0 0 0 0 0 0 0 0 0 0 0 0 0
3 1 0 0 0 0 0 0 0 0 0 0 0 4 0 3 0 0 0 0 0 0 0 0 0 0 317 0 0 0 0 0 0 0 0 0 0 0 0 0 0 0 0 0
21 31 6 0 0 0 0 0 0 0 0 0 0 0 0 0 0 0 0 0 11 0 0 0 0 0 12 0 0 0 0 0 0 0 0 0 0 0 0 0 0 0 0 0
29 17 0 0 0 0 0 0 0 0 0 0 0 0 0 0 0 0 0 0 0 4 1 0 0 0 0 0 0 0 0 0 0 0 0 0 0 0 0 0 0 0 0 0
56 16 4 0 0 0 0 0 0 0 0 0 0 0 0 0 0 0 0 0 0 0 8 0 0 0 0 0 0 0 0 0 0 0 0 0 0 0 0 0 0 0 0 0
55 45 7 0 0 0 1 0 0 0 0 0 0 0 0 0 0 0 0 0 1 0 6 17 6 0 0 0 0 0 0 0 0 0 0 0 0 0 0 0 0 0 0 0
30 31 2 0 0 0 27 0 0 0 0 4 2 0 0 0 0 0 0 0 0 0 0 0 0 0 0 0 0 0 0 0 0 0 0 0 0 0 0 0 0 0 0 0
2 1 0 0 0 14 15 0 1 4 0 0 0 0 0 0 0 0 0 0 0 0 0 0 0 0 0 0 0 0 0 0 0 0 0 0 0 0 0 0 0 0 0 0
75 0 0 6 16 38 0 4 0 26 8 1 0 0 0 0 0 0 12 0 0 0 0 0 0 0 0 0 0 0 0 0 0 0 0 0 0 0 0 0 0 0 0 0
69 2 61 48 48 58 7 2 0 0 0 0 0 2 1 0 0 0 0 0 0 0 0 0 0 0 6 8 3 0 0 0 0 0 0 0 0 0 0 0 0 0 0 0
88 95 164 67 34 84 70 51 1 0 0 2 2 8 5 4 0 0 0 0 0 0 0 0 0 0 0 20 7 0 0 0 0 0 0 0 0 0 0 0 0 0 0 0
157 85 87 55 54 7 33 22 18 14 0 0 0 2 0 0 0 6 7 0 0 0 0 0 0 0 0 1 13 3 0 0 0 0 0 0 0 0 0 0 0 0 0 0
92 77 56 9 14 2 15 0 0 0 0 0 1 0 0 0 0 7 1 0 0 0 0 0 0 0 0 0 0 9 0 0 0 0 0 0 0 0 0 0 0 0 0 0
10 0 0 4 2 2 0 5 7 0 4 9 7 4 5 11 5 1 4 0 0 0 0 0 0 0 0 0 0 0 0 0 0 0 0 0 0 0 0 0 0 0 0 0
0 0 0 0 0 0 0 5 2 0 1 14 21 5 15 15 7 10 14 0 0 0 0 0 0 0 0 0 0 0 0 0 0 0 0 0 0 0 0 0 0 0 0 0
1 1 1 1 10 9 10 11 8 5 3 0 0 0 26 5 14 19 11 7 1 0 0 0 0 0 0 0 0 0 0 0 0 0 0 0 0 0 0 0 0 0 0 0
0 3 10 12 9 11 17 21 14 16 21 22 10 0 0 0 0 4 0 0 1 1 1 0 0 0 0 0 0 0 0 0 0 0 0 0 0 0 0 0 0 0 0 0
3 4 9 9 12 16 21 23 21 16 0 0 0 0 0 0 0 0 0 0 0 0 0 0 0 0 0 0 0 0 0 0 0 0 0 0 0 0 0 0 0 0 0 0
1 4 8 11 17 30 15 8 2 1 2 0 0 0 0 0 0 0 0 0 0 0 0 0 0 0 0 0 0 2 0 0 0 0 0 0 0 0 0 0 0 0 0 0
10 11 14 14 10 8 7 1 0 0 0 0 0 0 0 0 0 0 0 0 0 0 0 0 0 1 0 1 0 0 0 0 0 0 0 0 0 0 0 0 0 0 0 0
8 9 8 1 7 10 6 3 2 1 0 0 1 1 2 0 0 0 0 1 0 0 0 0 0 0 0 0 0 0 0 0 0 0 0 0 0 0 0 0 0 0 0 0
11 9 9 6 7 6 4 6 4 4 4 4 3 2 2 4 5 11 8 2 1 0 0 0 0 0 0 0 0 0 0 0 0 0 0 0 0 0 0 0 0 0 0 0
9 8 8 2 3 3 5 7 7 8 5 5 5 3 4 11 6 2 0 0 0 0 0 0 0 0 0 0 0 0 0 0 0 0 0 0 0 0 0 0 0 0 0 0
4 4 5 5 4 7 5 4 3 4 6 9 8 4 2 1 3 1 0 0 0 0 0 0 0 0 0 0 0 0 0 0 0 0 0 0 0 0 0 0 0 0 0 0
2 6 7 6 10 8 5 5 8 6 5 8 6 4 1 0 0 0 0 0 0 0 0 0 0 0 0 0 0 0 0 0 0 0 0 0 0 0 0 0 0 0 0 0
8 2 10 8 5 7 6 6 6 6 5 8 6 4 2 1 0 0 0 0 0 0 0 0 0 0 0 0 0 0 0 0 0 0 0 0 0 0 0 0 0 0 0 0
CIN
-0 -0 -0 -0 -0 -0 -0 -0 -0 -0 -0 -24 -0 -0 -0 -0 -0 -0 -0 -0 -0 -134 -187 -240 -194 -150 -147 -272 -237 -222 -240 -381 -81 -0 -111 -110 -0 -0 -0 -0 -0 -0 -0 -0
-0 -0 -0 -0 -0 -0 -0 -0 -0 -0 -0 -0 -0 -0 -0 -0 -0 -0 -0 -0 -0 -0 -0 -0 -0 -182 -185 -0 -0 -0 -0 -0 -0 -0 -0 -0 -0 -0 -0 -0 -0 -0 -0 -0
-0 -4 -0 -0 -0 -0 -0 -0 -0 -0 -0 -0 -0 -1 -0 -0 -0 -0 -0 -0 -0 -0 -0 -0 -0 -0 -68 -0 -0 -0 -0 -0 -0 -0 -0 -0 -0 -0 -0 -0 -0 -0 -0 -0
-0 -1 -0 -0 -0 -0 -0 -0 -0 -0 -0 -0 -0 -0 -0 -0 -0 -0 -0 -0 -8 -8 -0 -0 -0 -0 -60 -0 -0 -0 -0 -0 -0 -0 -0 -0 -0 -0 -0 -0 -0 -0 -0 -0
-0 -0 -0 -0 -0 -0 -0 -0 -0 -0 -0 -0 -0 -0 -0 -0 -0 -0 -0 -0 -0 -11 -43 -0 -0 -0 -0 -0 -0 -0 -0 -0 -0 -0 -0 -0 -0 -0 -0 -0 -0 -0 -0 -0
-0 -0 -0 -0 -0 -0 -0 -0 -0 -0 -0 -0 -0 -0 -0 -0 -0 -0 -0 -0 -0 -0 -17 -4 -0 -0 -0 -0 -0 -0 -0 -0 -0 -0 -0 -0 -0 -0 -0 -0 -0 -0 -0 -0
-0 -0 -0 -0 -0 -0 -1 -0 -0 -0 -0 -0 -0 -0 -0 -0 -0 -0 -0 -0 -0 -0 -3 -3 -42 -0 -0 -0 -0 -0 -0 -0 -0 -0 -0 -0 -0 -0 -0 -0 -0 -0 -0 -0
-0 -0 -0 -0 -0 -2 -0 -0 -0 -0 -0 -3 -1 -0 -0 -0 -0 -0 -0 -0 -0 -0 -0 -0 -0 -0 -0 -0 -0 -0 -0 -0 -0 -0 -0 -0 -0 -0 -0 -0 -0 -0 -0 -0
-1 -1 -0 -0 -0 -12 -9 -0 -2 -7 -0 -0 -1 -0 -0 -0 -0 -0 -0 -0 -0 -0 -0 -0 -0 -0 -0 -0 -0 -0 -0 -0 -0 -0 -0 -0 -0 -0 -0 -0 -0 -0 -0 -0
-1 -0 -0 -0 -0 -0 -0 -13 -0 -1 -1 -2 -0 -0 -0 -0 -0 -0 -11 -0 -0 -0 -0 -0 -0 -0 -0 -0 -9 -0 -0 -0 -0 -0 -0 -0 -0 -0 -0 -0 -0 -0 -0 -0
-0 -0 -0 -2 -0 -1 -11 -2 -0 -0 -0 -0 -0 -0 -1 -0 -0 -0 -2 -0 -0 -0 -0 -0 -0 -0 -36 -60 -68 -0 -0 -0 -0 -0 -0 -0 -0 -0 -0 -0 -0 -0 -0 -0
-0 -2 -0 -1 -17 -0 -0 -1 -1 -0 -0 -1 -0 -1 -0 -2 -0 -0 -0 -0 -0 -0 -0 -0 -0 -0 -0 -54 -61 -0 -0 -0 -0 -0 -0 -0 -0 -0 -0 -0 -0 -0 -0 -0
-0 -3 -4 -2 -1 -7 -0 -0 -1 -0 -0 -0 -0 -7 -0 -0 -0 -3 -5 -0 -0 -0 -0 -0 -0 -0 -0 -30 -42 -18 -0 -0 -0 -0 -0 -0 -0 -0 -0 -0 -0 -0 -0 -0
-0 -0 -0 -0 -2 -2 -1 -0 -0 -0 -0 -0 -0 -0 -0 -0 -0 -12 -14 -0 -0 -0 -0 -0 -0 -7 -0 -0 -36 -103 -0 -0 -0 -0 -0 -0 -0 -0 -0 -0 -0 -0 -0 -0
-14 -5 -0 -0 -0 -0 -0 -0 -0 -0 -0 -0 -1 -2 -2 -1 -2 -4 -12 -0 -0 -0 -0 -0 -0 -0 -0 -0 -0 -0 -0 -0 -0 -0 -0 -0 -0 -0 -0 -0 -0 -0 -0 -0
-0 -0 -0 -0 -0 -0 -0 -0 -0 -0 -0 -0 -0 -4 -1 -2 -4 -3 -1 -0 -0 -0 -0 -0 -0 -0 -0 -0 -0 -0 -0 -0 -0 -0 -0 -0 -0 -0 -0 -0 -0 -0 -0 -0
-0 -0 -0 -0 -0 -0 -0 -0 -0 -0 -0 -0 -0 -0 -3 -5 -5 -4 -3 -9 -14 -0 -0 -0 -0 -0 -0 -0 -0 -0 -0 -0 -0 -0 -0 -0 -0 -0 -0 -0 -0 -0 -0 -0
-0 -0 -0 -0 -0 -0 -0 -0 -0 -0 -0 -0 -0 -0 -0 -0 -7 -23 -0 -0 -0 -0 -0 -0 -0 -0 -0 -0 -0 -0 -0 -0 -0 -0 -0 -0 -0 -0 -0 -0 -0 -0 -0 -0
-0 -0 -0 -0 -0 -0 -0 -0 -0 -0 -1 -0 -0 -0 -0 -0 -0 -0 -0 -0 -0 -0 -0 -0 -0 -0 -0 -0 -0 -0 -0 -0 -0 -0 -0 -0 -0 -1 -0 -0 -0 -0 -0 -0
-0 -0 -0 -0 -0 -0 -0 -0 -0 -0 -0 -0 -0 -0 -0 -0 -0 -0 -0 -0 -0 -0 -0 -0 -0 -0 -0 -0 -0 -11 -0 -0 -0 -0 -0 -0 -0 -0 -0 -0 -0 -0 -0 -0
-0 -0 -0 -0 -0 -0 -0 -0 -0 -0 -0 -0 -0 -0 -0 -0 -0 -0 -0 -0 -0 -0 -0 -0 -0 -0 -1 -1 -0 -0 -0 -0 -0 -0 -0 -0 -0 -0 -0 -0 -0 -0 -0 -0
-0 -0 -0 -0 -0 -0 -0 -0 -0 -0 -0 -0 -0 -0 -0 -0 -0 -0 -0 -0 -0 -0 -0 -0 -0 -0 -0 -0 -0 -0 -0 -0 -0 -0 -0 -0 -0 -0 -0 -0 -0 -0 -0 -0
-0 -0 -0 -0 -0 -0 -0 -0 -0 -0 -0 -0 -0 -0 -0 -0 -0 -0 -0 -0 -0 -0 -0 -0 -0 -0 -0 -0 -0 -0 -0 -0 -0 -0 -0 -0 -0 -0 -0 -0 -0 -0 -0 -0
-0 -0 -0 -0 -0 -0 -0 -0 -0 -0 -0 -0 -0 -0 -0 -0 -0 -0 -0 -0 -0 -0 -0 -0 -0 -0 -0 -0 -0 -0 -0 -0 -0 -0 -0 -0 -0 -0 -0 -0 -0 -0 -0 -0
-0 -0 -0 -0 -0 -0 -0 -0 -0 -0 -0 -0 -0 -0 -0 -0 -0 -0 -0 -0 -0 -0 -0 -0 -0 -0 -0 -0 -0 -0 -0 -0 -0 -0 -0 -0 -0 -0 -0 -0 -0 -0 -0 -0
-0 -0 -0 -0 -0 -0 -0 -0 -0 -0 -0 -0 -0 -0 -0 -0 -0 -0 -0 -0 -0 -0 -0 -0 -0 -0 -0 -0 -0 -0 -0 -0 -0 -0 -0 -0 -0 -0 -0 -0 -0 -0 -0 -0
-0 -0 -0 -0 -0 -0 -0 -0 -0 -0 -0 -0 -0 -0 -0 -0 -0 -0 -0 -0 -0 -0 -0 -0 -0 -0 -0 -0 -0 -0 -0 -0 -0 -0 -0 -0 -0 -0 -0 -0 -0 -0 -0 -0
Wind_Speed
7 9 9 13 11 7 5 6 6 8 21 20 18 15 15 3 9 9 8 5 4 4 3 3 5 3 7 7 6 7 11 13 13 12 13 15 16 16 15 16 16 14 15 13
8 12 10 14 14 13 13 13 15 17 18 14 6 11 16 14 14 14 12 5 5 0 9 6 5 5 8 7 7 8 10 11 13 14 14 15 15 16 16 15 15 15 15 15
4 6 3 8 19 19 16 17 14 17 13 10 9 3 13 13 12 12 12 11 6 5 5 7 7 7 10 10 8 8 9 10 12 15 15 16 16 16 17 16 15 15 15 14
4 6 6 11 5 10 18 18 18 18 15 15 13 9 12 9 10 9 11 12 6 6 6 4 6 8 7 13 11 9 8 11 13 14 16 17 17 18 17 15 16 15 15 13
4 7 15 17 15 17 12 15 15 14 13 13 14 12 11 12 11 10 12 10 10 7 9 7 6 7 9 14 12 11 11 12 13 15 16 16 17 17 16 16 14 13 12 14
8 5 7 5 4 11 9 14 9 12 6 8 7 9 6 10 12 8 7 5 14 13 7 13 10 7 10 13 14 14 15 15 15 16 17 18 17 18 15 14 14 12 13 12
13 10 13 19 16 13 10 8 7 4 7 6 4 7 12 15 16 13 13 13 7 13 10 8 13 13 13 15 16 15 14 15 15 15 17 17 17 15 15 15 15 13 13 11
6 7 16 5 3 6 6 10 9 8 7 8 8 7 8 12 14 15 14 18 9 11 11 8 9 12 14 16 15 15 16 16 17 16 13 12 17 15 16 15 16 15 14 11
9 7 15 15 12 12 13 13 11 10 9 10 9 8 10 12 12 12 15 15 12 11 13 10 9 9 14 13 16 16 17 17 18 18 15 16 17 17 13 15 14 13 12 12
9 19 22 17 17 13 14 14 17 14 13 12 13 11 13 10 10 12 12 12 12 14 10 11 12 5 14 14 18 19 18 17 15 17 17 16 13 13 14 14 13 13 13 12
15 19 18 20 18 15 20 17 19 16 17 16 14 14 14 13 12 13 12 12 12 13 11 14 15 14 9 15 16 19 19 17 16 13 15 16 14 14 15 14 14 18 15 15
12 15 13 13 15 18 15 12 18 21 20 18 17 16 17 14 12 11 13 13 14 17 16 16 15 13 12 11 18 20 18 15 13 12 12 11 12 9 8 9 11 10 18 16
14 15 16 16 15 18 17 16 17 17 18 18 18 17 18 15 14 11 11 17 14 13 13 14 12 11 12 8 15 21 19 19 13 13 12 13 13 13 12 8 13 15 19 21
13 12 12 15 13 15 16 19 20 21 21 18 18 18 19 18 17 13 13 14 14 11 13 12 10 7 4 9 11 17 20 22 18 16 14 13 14 13 12 14 14 10 16 19
11 13 15 15 17 18 19 18 21 21 19 19 18 20 18 19 19 18 14 13 10 10 10 9 6 11 5 3 6 5 16 14 14 14 13 14 12 12 12 13 13 12 11 12
14 15 18 20 21 21 21 21 23 23 21 20 20 21 19 20 20 18 17 19 18 15 14 10 11 12 5 5 6 4 10 18 18 14 14 14 13 13 13 13 13 12 12 13
15 15 16 19 19 21 23 21 22 23 23 23 23 23 22 21 20 16 15 13 11 12 8 9 11 5 4 6 8 8 11 13 20 15 15 15 14 15 15 14 14 12 12 13
14 16 18 18 19 21 22 22 22 23 22 23 24 21 18 14 12 8 6 5 3 6 8 8 6 6 7 12 14 13 13 15 15 15 15 16 15 14 14 15 15 14 12 12
17 18 18 19 19 20 20 20 21 21 23 23 22 23 18 12 11 8 6 5 7 11 15 7 9 9 14 18 16 13 15 19 16 14 15 18 15 15 15 15 15 14 13 13
17 17 18 20 20 18 19 18 21 20 22 17 18 15 13 12 11 9 8 12 14 12 10 9 10 14 17 20 18 15 17 19 18 16 15 16 16 16 14 16 15 15 13 13
14 15 16 16 17 17 12 13 13 12 9 3 3 6 9 9 10 8 8 9 12 11 13 14 13 12 12 14 17 15 17 18 18 16 16 16 16 16 15 14 13 13 12 12
12 12 12 13 13 11 10 10 10 9 8 6 6 6 7 9 9 7 6 10 5 7 9 10 11 14 11 18 14 16 17 17 15 14 14 15 15 14 14 13 13 12 11 11
11 10 11 11 11 11 9 10 10 10 9 8 7 5 3 3 3 5 6 2 2 3 3 3 7 14 15 10 12 14 16 17 15 14 14 14 14 14 14 14 12 12 11 10
10 10 10 9 9 8 11 12 10 10 8 9 10 10 7 4 5 4 3 4 4 4 5 9 13 17 16 11 13 14 15 15 14 13 14 17 12 12 12 11 11 11 11 12
8 9 8 10 10 8 10 11 9 10 10 10 10 9 10 8 6 5 6 6 9 10 10 15 16 16 11 12 13 14 13 13 13 13 13 12 12 12 11 10 10 10 10 10
5 6 5 7 7 7 7 7 7 8 8 9 9 9 8 7 7 8 9 11 11 12 9 9 10 11 11 13 14 14 13 13 13 12 13 12 12 11 11 11 10 10 9 9
4 5 5 5 6 7 7 7 6 7 7 6 7 8 8 8 9 9 11 11 11 12 11 11 11 13 12 13 13 13 12 12 13 11 11 11 10 11 11 11 10 9 8 9
Wind_Direction
257 263 269 294 297 309 306 316 271 212 231 232 21 339 342 300 100 87 82 89 115 110 114 173 161 206 116 100 116 140 142 143 145 143 148 144 149 154 154 153 152 150 144 147
270 269 267 283 278 269 259 253 271 275 278 286 262 316 323 338 353 14 356 186 155 165 155 186 181 199 153 146 143 159 156 152 145 146 151 148 148 152 148 148 149 145 148 147
301 34 49 288 247 245 251 253 253 257 266 284 321 36 287 302 331 328 319 321 181 162 135 157 170 199 161 158 144 163 156 157 157 154 152 154 150 150 152 150 151 150 145 146
259 316 236 240 247 209 215 231 234 250 263 265 267 254 248 282 294 292 309 305 317 174 162 166 168 181 161 148 157 162 163 163 163 163 159 158 156 155 152 153 155 152 146 125
241 235 273 283 250 243 208 251 254 240 247 264 285 277 255 251 242 276 284 299 282 299 168 164 196 171 165 149 163 165 171 171 169 164 159 159 157 155 154 150 150 148 131 129
225 242 267 243 311 174 240 254 249 281 251 231 257 283 288 324 318 288 278 295 286 254 254 168 183 180 170 161 159 178 177 176 169 167 162 161 161 157 156 151 144 139 130 131
229 242 260 253 263 292 275 257 305 313 321 317 319 276 308 322 319 317 306 291 277 313 270 263 176 180 187 169 177 177 172 171 171 169 166 162 157 156 154 144 141 138 131 133
211 223 254 141 278 220 310 289 285 283 272 263 263 284 290 291 294 299 293 293 280 281 287 283 289 177 191 181 179 167 169 173 171 166 163 161 156 152 146 146 137 142 136 139
212 226 260 293 310 313 310 305 310 320 318 309 302 292 281 270 276 302 278 291 288 280 281 268 253 227 195 197 168 169 169 176 175 169 164 163 158 151 154 152 146 153 151 148
262 254 270 288 284 296 290 288 294 297 287 275 272 266 277 262 273 263 269 280 291 273 282 300 301 236 200 188 167 167 173 176 174 171 161 162 159 161 153 158 161 157 156 150
270 264 282 284 287 291 297 296 293 284 280 278 273 270 255 258 246 271 276 276 283 291 284 281 287 290 212 192 173 171 173 174 175 171 169 166 167 171 166 176 172 162 165 156
268 279 275 270 267 276 269 302 305 300 296 288 282 276 273 268 265 252 264 265 267 271 273 279 274 286 297 203 186 171 171 170 171 165 171 169 160 140 80 131 131 139 153 152
281 293 295 301 307 304 296 285 281 276 277 284 287 291 289 275 268 263 271 256 248 261 274 279 269 280 285 341 203 171 170 167 163 170 169 168 164 156 146 92 111 134 132 133
280 283 273 286 304 311 300 293 289 282 279 277 271 266 270 271 275 261 256 265 272 262 268 272 295 307 350 347 290 176 173 171 167 171 171 171 166 163 160 154 146 151 135 134
326 327 315 306 301 297 298 300 293 283 279 273 262 261 261 258 256 257 247 246 229 227 239 252 249 262 265 269 308 298 175 170 165 170 169 168 163 160 159 157 150 152 142 126
324 316 317 317 314 309 302 295 293 291 294 291 277 267 267 251 253 256 250 242 252 244 229 216 222 240 190 214 237 183 207 171 163 168 162 162 161 162 159 159 152 155 150 151
327 317 317 307 301 295 291 288 281 278 281 280 279 285 289 255 261 249 242 243 244 249 227 181 219 141 204 236 234 221 178 177 167 167 165 164 164 169 163 159 156 155 152 153
322 312 308 309 305 296 291 285 280 278 275 275 274 276 267 281 259 250 227 225 245 268 232 221 224 204 202 233 232 216 180 174 172 170 163 165 165 168 164 158 152 150 142 141
324 318 311 304 301 295 291 288 285 283 278 268 263 264 265 263 258 249 224 198 221 247 254 231 229 217 230 224 222 206 176 170 171 166 167 160 162 160 161 157 150 142 139 147
317 316 310 313 309 301 299 293 288 279 273 249 248 247 249 246 244 240 232 241 239 244 259 246 226 231 234 223 207 196 171 166 163 163 163 159 157 157 153 151 144 134 146 149
318 314 317 318 316 310 312 310 299 302 329 337 262 252 252 259 260 257 253 253 257 240 244 243 236 240 232 217 191 168 166 161 160 162 157 157 152 152 143 139 139 144 144 149
324 322 324 323 318 321 326 323 332 332 331 310 281 273 278 282 284 271 244 253 257 231 232 224 215 209 179 165 157 156 157 149 146 146 148 148 148 144 131 139 144 139 145 151
329 331 330 332 332 330 326 344 346 350 359 7 6 4 354 4 330 274 266 285 251 266 202 175 142 139 140 132 136 137 136 132 135 138 141 141 140 135 141 139 141 136 143 149
340 342 335 329 330 342 356 353 351 357 2 19 23 15 1 22 39 16 11 35 69 89 101 114 111 111 115 119 122 121 121 125 124 128 127 124 122 124 122 133 135 139 141 144
342 335 342 352 356 355 354 352 358 6 5 14 19 22 29 27 35 20 43 50 66 86 87 93 97 104 105 110 111 112 114 118 119 113 109 115 121 122 123 130 135 138 140 143
337 348 343 351 351 357 352 354 10 16 12 11 18 18 25 29 37 44 49 54 58 67 71 77 82 86 94 97 99 100 102 102 103 110 115 117 121 122 124 127 132 130 132 138
339 355 354 7 10 2 7 10 17 23 18 20 23 11 14 22 32 45 52 55 58 58 59 64 70 76 82 84 88 89 92 97 104 108 111 115 117 121 125 129 126 127 130 134